カタログに戻る

STARLINK-5433

運用中通信VLEO
NORAD 54793·PAYLOAD·🇺🇸 United States

打ち上げ Dec 17, 2022 から Cape Canaveral Space Force Station

Loading…

次のパス (今後24時間)

TLE

最新Source: CelesTrak SupGP

元期: Sep 15, 2026, 03:07 UTC

1 54793C 22175AM  26258.13034722 -.00035266  00000+0 -10090-2 0  2583
2 54793  53.1580 242.7324 0001249  91.1015 332.2409 15.35414391    19

AllMySatでSTARLINK-5433をリアルタイム追跡

Download on the App Store